Zurück zum Katalog

OPS 4682 DEB

AktivPO
NORAD 38406·DEBRIS·🇺🇸 United States

Gestartet Apr 3, 1965 von Vandenberg Space Force Base

Loading…

Nächste Überflüge (nächste 24 Stunden)

TLE

AlterndSource: Space-Track

Epoche: Sep 10, 2026, 13:38 UTC

1 38406U 65027DK  26253.56814888  .00000462  00000-0  15017-2 0  9995
2 38406  90.2519  13.0823 0024397  28.7156 331.5304 13.00350942566362

Verfolge OPS 4682 DEB in Echtzeit mit AllMySat

Download on the App Store